TimeEST,TemperatureF,Dew PointF,Humidity,Sea Level PressureIn,VisibilityMPH,Wind Direction,Wind SpeedMPH,Gust SpeedMPH,PrecipitationIn,Events,Conditions,WindDirDegrees,DateUTC
12:52 AM,28.9,24.1,82,30.42,10.0,Calm,Calm,-,N/A,,Clear,0,2013-01-08 05:52:00
1:52 AM,37.0,26.1,65,30.42,10.0,South,5.8,-,N/A,,Clear,170,2013-01-08 06:52:00
2:52 AM,37.0,28.9,73,30.43,10.0,South,5.8,-,N/A,,Clear,190,2013-01-08 07:52:00
3:52 AM,37.0,28.9,73,30.41,10.0,South,4.6,-,N/A,,Clear,190,2013-01-08 08:52:00
4:52 AM,37.0,28.9,73,30.40,10.0,SSW,6.9,-,N/A,,Clear,200,2013-01-08 09:52:00
5:09 AM,35.6,28.4,75,30.41,10.0,SSW,5.8,-,N/A,,Clear,200,2013-01-08 10:09:00
5:52 AM,37.0,28.9,73,30.43,10.0,SSW,5.8,-,N/A,,Clear,200,2013-01-08 10:52:00
6:52 AM,28.9,25.0,85,30.44,10.0,SSW,3.5,-,N/A,,Partly Cloudy,200,2013-01-08 11:52:00
7:52 AM,28.9,26.1,89,30.46,10.0,SSW,3.5,-,N/A,,Clear,200,2013-01-08 12:52:00
8:52 AM,39.9,30.9,70,30.45,10.0,South,4.6,-,N/A,,Clear,180,2013-01-08 13:52:00
9:52 AM,44.1,30.9,60,30.46,10.0,SSW,9.2,-,N/A,,Clear,200,2013-01-08 14:52:00
10:52 AM,48.9,30.9,50,30.44,10.0,South,10.4,-,N/A,,Scattered Clouds,180,2013-01-08 15:52:00
11:52 AM,50.0,30.9,48,30.41,10.0,South,12.7,19.6,N/A,,Mostly Cloudy,180,2013-01-08 16:52:00
12:52 PM,53.1,33.1,47,30.38,10.0,South,8.1,-,N/A,,Mostly Cloudy,170,2013-01-08 17:52:00
1:52 PM,52.0,32.0,47,30.38,10.0,South,5.8,-,N/A,,Mostly Cloudy,190,2013-01-08 18:52:00
2:52 PM,52.0,32.0,47,30.39,10.0,SW,8.1,-,N/A,,Mostly Cloudy,220,2013-01-08 19:52:00
3:52 PM,52.0,32.0,47,30.40,10.0,SSW,4.6,-,N/A,,Mostly Cloudy,210,2013-01-08 20:52:00
4:52 PM,46.0,37.9,73,30.40,10.0,East,3.5,-,N/A,,Mostly Cloudy,80,2013-01-08 21:52:00
5:52 PM,45.0,39.0,80,30.40,10.0,ESE,3.5,-,N/A,,Mostly Cloudy,120,2013-01-08 22:52:00
6:52 PM,44.1,39.0,82,30.40,10.0,SSE,3.5,-,N/A,,Mostly Cloudy,150,2013-01-08 23:52:00
7:52 PM,43.0,37.0,80,30.40,10.0,Calm,Calm,-,N/A,,Mostly Cloudy,0,2013-01-09 00:52:00
8:52 PM,43.0,37.0,80,30.39,10.0,Calm,Calm,-,N/A,,Mostly Cloudy,0,2013-01-09 01:52:00
9:52 PM,45.0,35.1,68,30.41,10.0,SSW,4.6,-,N/A,,Mostly Cloudy,210,2013-01-09 02:52:00
10:52 PM,45.0,34.0,65,30.40,10.0,SSW,4.6,-,N/A,,Scattered Clouds,200,2013-01-09 03:52:00
11:52 PM,37.0,30.9,79,30.40,10.0,SW,4.6,-,N/A,,Clear,230,2013-01-09 04:52:00